Date String (YYYY-MM-DD hh:mm:ss) UTC,Instrument flags,Ambient pressure (hPa),Sample flow (lpm),Bypass flow (lpm),Sample temperature (°C),Ambient temperature (°C),ASC tube jacket temperature (°C),LED temperature (°C),Box temperature (°C),Sample RH (%),Span deviation,Mass concentration (μg/m³),Mass concentration (μg/m³),Mass concentration (μg/m³)
DateTimeUTC,F1_M11,P_M11,Q1_M11,Q2_M11,T1_M11,T2_M11,T3_M11,T4_M11,T5_M11,U1_M11,ZSPAN_M11,X0_M11,X2_M11,X1_M11
2022-05-23 21:00:00,,0824.3,5.01,0.00,30.0,29.0,00.0,38.9,31.8,13.1,0000.0,0004.15,0002.55,0002.15
2022-05-23 21:01:00,,0824.2,5.00,0.00,30.0,29.0,00.0,38.9,31.8,13.7,0000.0,0004.21,0002.54,0002.12
2022-05-23 21:02:00,,0824.2,4.99,0.00,30.0,29.0,00.0,38.9,31.7,13.5,0000.0,0004.24,0002.55,0002.11
2022-05-23 21:03:00,,0824.2,4.99,0.00,30.0,29.1,00.0,38.9,31.8,13.3,0000.0,0004.20,0002.55,0002.12
2022-05-23 21:04:00,,0824.1,5.01,0.00,30.0,29.1,00.0,38.9,31.8,13.2,0000.0,0004.30,0002.61,0002.13
2022-05-23 21:05:00,,0824.2,5.00,0.00,30.0,29.1,00.0,38.9,31.8,13.3,0000.0,0004.34,0002.64,0002.14
2022-05-23 21:06:00,,0824.1,5.00,0.00,30.0,29.1,00.0,38.9,31.8,13.5,0000.0,0004.33,0002.62,0002.13
2022-05-23 21:07:00,,0824.2,4.99,0.00,30.0,29.1,00.0,38.9,31.8,12.3,0000.0,0004.23,0002.58,0002.10
2022-05-23 21:08:00,,0824.2,5.00,0.00,30.0,29.1,00.0,38.9,31.9,12.1,0000.0,0004.35,0002.51,0002.07
2022-05-23 21:09:00,,0824.1,5.01,0.00,30.0,29.1,00.0,38.9,31.9,12.7,0000.0,0004.54,0002.45,0002.03
2022-05-23 21:10:00,,0824.1,4.99,0.00,30.0,29.1,00.0,38.9,31.9,12.4,0000.0,0004.60,0002.46,0002.01
2022-05-23 21:11:00,,0824.1,5.00,0.00,30.1,29.1,00.0,38.9,31.9,11.9,0000.0,0003.84,0002.42,0001.99
2022-05-23 21:12:00,,0824.1,4.99,0.00,30.1,29.1,00.0,38.9,31.9,12.0,0000.0,0003.70,0002.41,0001.99
2022-05-23 21:13:00,,0824.2,5.01,0.00,30.1,29.2,00.0,39.0,31.9,12.2,0000.0,0003.71,0002.42,0001.98
2022-05-23 21:14:00,,0824.1,5.00,0.00,30.1,29.2,00.0,39.0,31.9,12.5,0000.0,0003.87,0002.43,0001.96
2022-05-23 21:15:00,,0824.2,5.00,0.00,30.1,29.2,00.0,39.0,31.9,12.7,0000.0,0003.93,0002.41,0001.93
2022-05-23 21:16:00,,0824.1,5.00,0.00,30.1,29.2,00.0,39.0,31.9,12.5,0000.0,0003.80,0002.33,0001.90
2022-05-23 21:17:00,,0824.1,5.00,0.00,30.1,29.2,00.0,39.0,31.9,12.4,0000.0,0003.79,0002.34,0001.93
2022-05-23 21:18:00,,0824.1,5.00,0.00,30.1,29.2,00.0,39.0,31.9,12.4,0000.0,0003.79,0002.37,0001.95
2022-05-23 21:19:00,,0824.1,5.01,0.00,30.1,29.1,00.0,39.0,31.9,12.7,0000.0,0003.69,0002.41,0001.96
2022-05-23 21:20:00,,0824.1,5.01,0.00,30.1,29.1,00.0,39.0,31.9,12.6,0000.0,0003.31,0002.40,0001.96
2022-05-23 21:21:00,,0824.1,4.99,0.00,30.1,29.1,00.0,39.0,31.9,12.5,0000.0,0003.29,0002.39,0001.99
2022-05-23 21:22:00,,0824.1,5.00,0.00,30.1,29.1,00.0,39.0,31.9,12.3,0000.0,0004.15,0002.40,0001.99
2022-05-23 21:23:00,,0824.2,4.99,0.00,30.1,29.1,00.0,39.0,31.9,12.5,0000.0,0004.19,0002.40,0002.00
2022-05-23 21:24:00,,0824.1,4.99,0.00,30.1,29.1,00.0,39.0,31.9,13.2,0000.0,0004.17,0002.37,0001.99
2022-05-23 21:25:00,,0824.2,5.00,0.00,30.1,29.1,00.0,39.0,31.9,12.5,0000.0,0004.17,0002.35,0001.98
2022-05-23 21:26:00,,0824.2,5.00,0.00,30.1,29.1,00.0,39.0,31.8,12.5,0000.0,0004.07,0002.35,0001.99
2022-05-23 21:27:00,,0824.2,5.01,0.00,30.1,29.1,00.0,39.0,31.8,12.3,0000.0,0004.09,0002.39,0002.02
2022-05-23 21:28:00,,0824.2,5.00,0.00,30.1,29.0,00.0,39.0,31.8,12.8,0000.0,0004.14,0002.41,0002.04
2022-05-23 21:29:00,,0824.1,5.00,0.00,30.1,29.0,00.0,39.0,31.8,14.0,0000.0,0004.14,0002.40,0002.03
2022-05-23 21:30:00,,0824.1,5.00,0.00,30.1,29.0,00.0,39.0,31.9,14.2,0000.0,0004.50,0002.42,0002.04
2022-05-23 21:31:00,,0824.1,5.00,0.00,30.1,29.0,00.0,39.0,31.8,14.2,0000.0,0005.40,0002.47,0002.05
2022-05-23 21:32:00,,0824.2,5.00,0.00,30.1,29.0,00.0,39.0,31.8,13.8,0000.0,0005.45,0002.48,0002.04
2022-05-23 21:33:00,,0824.2,5.01,0.00,30.0,29.0,00.0,39.0,31.8,13.8,0000.0,0004.68,0002.51,0002.06
2022-05-23 21:34:00,,0824.2,5.00,0.00,30.0,29.0,00.0,39.0,31.8,13.8,0000.0,0004.66,0002.55,0002.08
2022-05-23 21:35:00,,0824.2,5.00,0.00,30.0,29.0,00.0,39.0,31.8,13.7,0000.0,0004.71,0002.61,0002.11
2022-05-23 21:36:00,,0824.2,5.01,0.00,30.0,29.0,00.0,39.0,31.8,13.6,0000.0,0004.67,0002.66,0002.16
2022-05-23 21:37:00,,0824.1,5.00,0.00,30.0,29.0,00.0,39.0,31.8,14.0,0000.0,0004.59,0002.66,0002.18
2022-05-23 21:38:00,,0824.2,4.99,0.00,30.0,29.0,00.0,39.0,31.8,14.1,0000.0,0004.58,0002.63,0002.17
2022-05-23 21:39:00,,0824.2,5.00,0.00,30.0,29.0,00.0,39.0,31.8,14.4,0000.0,0004.58,0002.59,0002.14
2022-05-23 21:40:00,,0824.2,5.01,0.00,30.1,29.0,00.0,39.0,31.8,14.0,0000.0,0005.42,0002.60,0002.13
2022-05-23 21:41:00,,0824.2,5.01,0.00,30.1,29.0,00.0,39.0,31.8,14.2,0000.0,0005.30,0002.53,0002.12
2022-05-23 21:42:00,,0824.3,5.00,0.00,30.1,29.0,00.0,39.0,31.8,14.1,0000.0,0004.56,0002.52,0002.13
2022-05-23 21:43:00,,0824.3,5.01,0.00,30.1,29.0,00.0,39.0,31.8,14.0,0000.0,0004.85,0002.52,0002.12
2022-05-23 21:44:00,,0824.3,4.99,0.00,30.1,29.0,00.0,39.0,31.8,13.8,0000.0,0005.01,0002.53,0002.10
2022-05-23 21:45:00,,0824.3,5.00,0.00,30.0,29.0,00.0,39.0,31.8,13.6,0000.0,0004.95,0002.50,0002.09
2022-05-23 21:46:00,,0824.3,5.02,0.00,30.0,29.0,00.0,39.0,31.8,13.6,0000.0,0004.95,0002.46,0002.07
2022-05-23 21:47:00,,0824.3,5.01,0.00,30.0,29.0,00.0,39.0,31.7,14.0,0000.0,0004.96,0002.44,0002.03
2022-05-23 21:48:00,,0824.3,4.99,0.00,30.0,29.0,00.0,39.0,31.8,14.0,0000.0,0005.34,0002.43,0002.00
2022-05-23 21:49:00,,0824.3,4.99,0.00,30.0,29.0,00.0,39.0,31.7,13.7,0000.0,0005.66,0002.40,0001.96
2022-05-23 21:50:00,,0824.3,5.00,0.00,30.0,28.9,00.0,39.0,31.7,13.5,0000.0,0005.63,0002.38,0001.92
2022-05-23 21:51:00,,0824.3,5.01,0.00,30.0,28.9,00.0,39.0,31.7,13.2,0000.0,0004.73,0002.33,0001.87
2022-05-23 21:52:00,,0824.3,5.00,0.00,30.0,28.9,00.0,39.0,31.7,13.5,0000.0,0004.37,0002.28,0001.82
2022-05-23 21:53:00,,0824.3,5.00,0.00,29.9,28.9,00.0,39.0,31.7,13.7,0000.0,0004.17,0002.20,0001.75
2022-05-23 21:54:00,,0824.3,5.00,0.00,29.9,28.9,00.0,39.0,31.7,14.2,0000.0,0003.89,0002.18,0001.72
2022-05-23 21:55:00,,0824.3,4.99,0.00,29.9,28.9,00.0,39.0,31.7,14.0,0000.0,0003.65,0002.09,0001.66
2022-05-23 21:56:00,,0824.3,5.00,0.00,29.9,28.9,00.0,39.0,31.6,13.5,0000.0,0003.55,0002.02,0001.60
2022-05-23 21:57:00,,0824.3,5.01,0.00,29.9,28.8,00.0,38.9,31.6,13.5,0000.0,0004.04,0001.99,0001.55
2022-05-23 21:58:00,,0824.3,5.01,0.00,29.9,28.8,00.0,38.9,31.6,13.3,0000.0,0005.03,0001.93,0001.51
2022-05-23 21:59:00,,0824.4,5.01,0.00,29.9,28.8,00.0,38.9,31.6,13.7,0000.0,0004.57,0001.85,0001.47
